This demonstration page uses our WeatherBlox Daily Observations layout. Learn more.

Left ArrowRight Arrow

Hourly Observations for September 26, 2020

Temp ( °F °C ) Dew Point ( °F °C ) Humidity (%) Winds ( mph kmh ) Pressure ( in mb ) Visibility ( mi km ) Precip ( " mm )
12:53 am 00:53 Clear 73 22.8 55 12.8 53 53 SE 13 20 29.79 1009 10 16 0.00 0.00
1:53 am 01:53 Clear 72 22.2 59 15 64 64 SE 13 20 29.78 1009 10 16 0.00 0.00
2:53 am 02:53 Clear 72 22.2 59 15 64 64 SE 14 22 29.77 1008 10 16 0.00 0.00
3:53 am 03:53 Clear 69 20.6 59 15 70 70 SE 12 19 29.75 1008 10 16 0.00 0.00
4:53 am 04:53 Clear 68 20 60 15.6 76 76 SE 9 15 29.75 1007 10 16 0.00 0.00
5:53 am 05:53 Clear 66 18.9 60 15.6 81 81 SE 9 15 29.75 1008 10 16 0.00 0.00
6:53 am 06:53 Clear 66 18.9 60 15.6 81 81 SE 9 15 29.75 1008 10 16 0.00 0.00
7:53 am 07:53 Sunny 64 17.8 60 15.6 87 87 SE 9 15 29.77 1008 10 16 0.00 0.00
8:53 am 08:53 Sunny 67 19.4 60 15.6 79 79 SE 10 17 29.78 1009 10 16 0.00 0.00
9:53 am 09:53 Sunny 72 22.2 60 15.6 66 66 SSE 10 17 29.78 1009 10 16 0.00 0.00
10:53 am 10:53 Sunny 79 26.1 58 14.4 49 49 Calm 29.78 1009 10 16 0.00 0.00
11:53 am 11:53 Sunny 86 30 53 11.7 32 32 VRB 3 6 29.77 1008 10 16 0.00 0.00
12:53 pm 12:53 Sunny 91 32.8 51 10.6 26 26 Calm 29.75 1007 10 16 0.00 0.00
1:53 pm 13:53 Sunny 95 35 44 6.7 17 17 Calm 29.71 1006 10 16 0.00 0.00
2:53 pm 14:53 Sunny 97 36.1 43 6.1 16 16 VRB 3 6 29.67 1005 10 16 0.00 0.00
3:53 pm 15:53 Sunny 101 38.3 42 5.6 13 13 Calm 29.65 1004 10 16 0.00 0.00
4:53 pm 16:53 Sunny 100 37.8 37 2.8 11 11 SW 5 7 29.63 1003 10 16 0.00 0.00
5:53 pm 17:53 Sunny 100 37.8 36 2.2 11 11 undefined N/A 29.62 1003 10 16 0.00 0.00
6:53 pm 18:53 Sunny 99 37.2 38 3.3 12 12 S 7 11 29.61 1003 10 16 0.00 0.00
7:53 pm 19:53 Clear 90 32.2 39 3.9 17 17 S 8 13 29.63 1004 10 16 0.00 0.00
8:53 pm 20:53 Clear 85 29.4 41 5 21 21 S 10 17 29.65 1004 10 16 0.00 0.00
9:53 pm 21:53 Clear 83 28.3 58 14.4 43 43 SSE 13 20 29.66 1004 10 16 0.00 0.00
10:53 pm 22:53 Clear 79 26.1 59 15 50 50 SSE 8 13 29.66 1004 10 16 0.00 0.00
11:53 pm 23:53 Clear 76 24.4 60 15.6 58 58 SE 9 15 29.66 1004 10 16 0.00 0.00

Powered by AerisWeather